• In Germany
  • List of Countries
  • For 7 days
  • Water Temperature
  • Satellite Maps
  • Weather Map
  • Weather Widgets
  • user-avatar
    Login

    Hourly Weather Sumgayit

    Today, 29 March, Wednesday

    Time Temperature Precipitation Wind Pressure Humidity
    00:00 +4°C° 0 mm 7 mps 740 mmHg 80%
    01:00 +4°C° 0 mm 7 mps 739 mmHg 76%
    02:00 +4°C° 0 mm 7 mps 739 mmHg 72%
    03:00 +4°C° 0 mm 7 mps 738 mmHg 60%
    04:00 +3°C° 0 mm 6 mps 738 mmHg 57%
    05:00 +3°C° 0 mm 6 mps 738 mmHg 54%
    06:00 +3°C° 0 mm 6 mps 738 mmHg 51%
    07:00 +5°C° 0 mm 6 mps 739 mmHg 44%
    08:00 +9°C° 0 mm 6 mps 739 mmHg 38%
    09:00 +12°C° 0 mm 5 mps 740 mmHg 33%
    10:00 +13°C° 0 mm 5 mps 740 mmHg 32%
    11:00 +14°C° 0 mm 5 mps 741 mmHg 31%
    12:00 +15°C° 0 mm 5 mps 741 mmHg 30%
    13:00 +14°C° 0 mm 5 mps 741 mmHg 33%
    14:00 +14°C° 0 mm 5 mps 741 mmHg 37%
    15:00 +14°C° 0 mm 5 mps 741 mmHg 41%
    16:00 +12°C° 0 mm 5 mps 742 mmHg 49%
    17:00 +10°C° 0 mm 5 mps 743 mmHg 57%
    18:00 +8°C° 0 mm 5 mps 743 mmHg 65%
    19:00 +7°C° 0 mm 5 mps 744 mmHg 69%
    20:00 +7°C° 0 mm 4 mps 745 mmHg 73%
    21:00 +7°C° 0 mm 3 mps 746 mmHg 77%
    22:00 +7°C° 0 mm 3 mps 746 mmHg 79%
    23:00 +6°C° 0 mm 2 mps 746 mmHg 81%

    Tomorrow, 30 March, Thursday

    Time Temperature Precipitation Wind Pressure Humidity
    00:00 +6°C° 0 mm 2 mps 747 mmHg 83%
    01:00 +6°C° 0 mm 2 mps 747 mmHg 83%
    02:00 +6°C° 0 mm 2 mps 747 mmHg 83%
    03:00 +5°C° 0 mm 2 mps 747 mmHg 83%
    04:00 +6°C° 0 mm 2 mps 747 mmHg 82%
    05:00 +5°C° 0 mm 3 mps 747 mmHg 81%
    06:00 +5°C° 0 mm 3 mps 747 mmHg 80%
    07:00 +6°C° 0 mm 4 mps 746 mmHg 74%
    08:00 +8°C° 0 mm 5 mps 746 mmHg 69%
    09:00 +9°C° 0 mm 6 mps 746 mmHg 63%
    10:00 +10°C° 0 mm 7 mps 745 mmHg 60%
    11:00 +11°C° 0 mm 7 mps 745 mmHg 57%
    12:00 +12°C° 0 mm 8 mps 744 mmHg 54%
    13:00 +13°C° 0 mm 8 mps 743 mmHg 53%
    14:00 +13°C° 0 mm 8 mps 742 mmHg 52%
    15:00 +13°C° 0 mm 8 mps 741 mmHg 51%
    16:00 +12°C° 0 mm 7 mps 741 mmHg 54%
    17:00 +11°C° 0 mm 7 mps 740 mmHg 57%
    18:00 +10°C° 0 mm 7 mps 740 mmHg 61%
    19:00 +10°C° 0 mm 6 mps 740 mmHg 63%
    20:00 +9°C° 0 mm 6 mps 740 mmHg 64%
    21:00 +9°C° 0 mm 6 mps 740 mmHg 66%
    22:00 +9°C° 0 mm 5 mps 740 mmHg 67%
    23:00 +8°C° 0 mm 5 mps 739 mmHg 67%

    Day after tomorrow, 31 March, Friday

    Time Temperature Precipitation Wind Pressure Humidity
    00:00 +8°C° 0 mm 4 mps 739 mmHg 67%
    01:00 +8°C° 0 mm 4 mps 739 mmHg 63%
    02:00 +8°C° 0 mm 4 mps 739 mmHg 59%
    03:00 +9°C° 0 mm 3 mps 739 mmHg 54%
    04:00 +8°C° 0 mm 4 mps 740 mmHg 52%
    05:00 +8°C° 0 mm 4 mps 740 mmHg 49%
    06:00 +8°C° 0 mm 4 mps 740 mmHg 46%
    07:00 +10°C° 0 mm 6 mps 741 mmHg 46%
    08:00 +11°C° 0 mm 7 mps 742 mmHg 46%
    09:00 +13°C° 0 mm 9 mps 743 mmHg 46%
    10:00 +13°C° 0 mm 9 mps 743 mmHg 49%
    11:00 +13°C° 0 mm 10 mps 743 mmHg 52%
    12:00 +13°C° 0 mm 10 mps 744 mmHg 55%
    13:00 +12°C° 0 mm 11 mps 744 mmHg 57%
    14:00 +10°C° 0 mm 12 mps 744 mmHg 59%
    15:00 +9°C° 0 mm 13 mps 744 mmHg 61%
    16:00 +8°C° 0 mm 13 mps 745 mmHg 64%
    17:00 +5°C° 0 mm 13 mps 745 mmHg 68%
    18:00 +4°C° 0 mm 13 mps 746 mmHg 71%
    19:00 +3°C° 0.1 mm 13 mps 747 mmHg 71%
    20:00 +3°C° 0.1 mm 13 mps 747 mmHg 71%
    21:00 +3°C° 0.1 mm 12 mps 748 mmHg 71%
    22:00 +2°C° 0.6 mm 12 mps 748 mmHg 73%
    23:00 +2°C° 0.6 mm 11 mps 748 mmHg 75%

    1 April, Saturday

    Time Temperature Precipitation Wind Pressure Humidity
    00:00 +2°C° 0.6 mm 10 mps 748 mmHg 77%
    01:00 +1°C° 0.3 mm 10 mps 748 mmHg 78%
    02:00 +1°C° 0.3 mm 9 mps 748 mmHg 78%
    03:00 +1°C° 0.3 mm 9 mps 748 mmHg 79%
    04:00 +1°C° 0.2 mm 8 mps 748 mmHg 78%
    05:00 +1°C° 0.2 mm 8 mps 748 mmHg 78%
    06:00 +2°C° 0.2 mm 7 mps 748 mmHg 78%
    07:00 +2°C° 0.3 mm 6 mps 748 mmHg 77%
    08:00 +2°C° 0.3 mm 5 mps 748 mmHg 76%
    09:00 +2°C° 0.3 mm 5 mps 748 mmHg 76%
    10:00 +4°C° 0.1 mm 4 mps 748 mmHg 73%
    11:00 +5°C° 0.1 mm 4 mps 748 mmHg 71%
    12:00 +5°C° 0.1 mm 3 mps 747 mmHg 68%
    13:00 +5°C° 0 mm 3 mps 747 mmHg 67%
    14:00 +7°C° 0 mm 3 mps 746 mmHg 66%
    15:00 +7°C° 0 mm 3 mps 746 mmHg 65%
    16:00 +7°C° 0 mm 3 mps 745 mmHg 67%
    17:00 +5°C° 0 mm 3 mps 745 mmHg 69%
    18:00 +5°C° 0 mm 3 mps 745 mmHg 72%
    19:00 +6°C° 0 mm 2 mps 746 mmHg 73%
    20:00 +5°C° 0 mm 2 mps 746 mmHg 74%
    21:00 +6°C° 0 mm 1 mps 746 mmHg 76%
    22:00 +6°C° 0 mm 1 mps 746 mmHg 77%
    23:00 +5°C° 0 mm 1 mps 745 mmHg 79%

    2 April, Sunday

    Time Temperature Precipitation Wind Pressure Humidity
    00:00 +5°C° 0 mm 1 mps 745 mmHg 81%
    01:00 +5°C° 0 mm 1 mps 745 mmHg 81%
    02:00 +5°C° 0 mm 1 mps 744 mmHg 82%
    03:00 +4°C° 0 mm 2 mps 744 mmHg 82%
    04:00 +4°C° 0 mm 2 mps 745 mmHg 82%
    05:00 +5°C° 0 mm 1 mps 745 mmHg 82%
    06:00 +5°C° 0 mm 1 mps 745 mmHg 81%
    07:00 +5°C° 0 mm 2 mps 745 mmHg 77%
    08:00 +6°C° 0 mm 2 mps 746 mmHg 72%
    09:00 +7°C° 0 mm 2 mps 746 mmHg 67%
    10:00 +8°C° 0.1 mm 2 mps 746 mmHg 65%
    11:00 +9°C° 0.1 mm 3 mps 746 mmHg 62%
    12:00 +9°C° 0.1 mm 3 mps 746 mmHg 59%
    13:00 +9°C° 0 mm 3 mps 746 mmHg 58%
    14:00 +10°C° 0 mm 4 mps 746 mmHg 58%
    15:00 +10°C° 0 mm 4 mps 746 mmHg 57%
    16:00 +8°C° 0 mm 5 mps 746 mmHg 60%
    17:00 +7°C° 0 mm 5 mps 746 mmHg 63%
    18:00 +6°C° 0 mm 5 mps 746 mmHg 65%
    19:00 +6°C° 0 mm 5 mps 747 mmHg 67%
    20:00 +4°C° 0 mm 6 mps 747 mmHg 69%
    21:00 +4°C° 0 mm 6 mps 748 mmHg 70%
    22:00 +3°C° 0 mm 6 mps 748 mmHg 71%
    23:00 +3°C° 0 mm 6 mps 748 mmHg 72%

    3 April, Monday

    Time Temperature Precipitation Wind Pressure Humidity
    00:00 +3°C° 0 mm 6 mps 748 mmHg 73%
    01:00 +3°C° 0 mm 6 mps 748 mmHg 75%
    02:00 +3°C° 0 mm 6 mps 748 mmHg 77%
    03:00 +3°C° 0 mm 6 mps 748 mmHg 79%
    04:00 +3°C° 0 mm 5 mps 748 mmHg 79%
    05:00 +3°C° 0 mm 5 mps 748 mmHg 79%
    06:00 +3°C° 0 mm 5 mps 749 mmHg 79%
    07:00 +5°C° 0 mm 4 mps 749 mmHg 70%
    08:00 +6°C° 0 mm 4 mps 749 mmHg 62%
    09:00 +8°C° 0 mm 4 mps 749 mmHg 53%
    10:00 +10°C° 0 mm 4 mps 749 mmHg 50%
    11:00 +10°C° 0 mm 3 mps 748 mmHg 48%
    12:00 +11°C° 0 mm 3 mps 748 mmHg 45%
    13:00 +11°C° 0 mm 3 mps 748 mmHg 45%
    14:00 +11°C° 0 mm 3 mps 747 mmHg 45%
    15:00 +11°C° 0 mm 3 mps 747 mmHg 45%
    16:00 +11°C° 0 mm 3 mps 747 mmHg 49%
    17:00 +10°C° 0 mm 3 mps 747 mmHg 54%
    18:00 +9°C° 0 mm 3 mps 747 mmHg 58%
    19:00 +8°C° 0 mm 3 mps 747 mmHg 61%
    20:00 +8°C° 0 mm 2 mps 747 mmHg 64%
    21:00 +7°C° 0 mm 2 mps 747 mmHg 68%
    22:00 +7°C° 0 mm 2 mps 747 mmHg 68%
    23:00 +6°C° 0 mm 2 mps 746 mmHg 69%
    Show more